QPF
0.04 0.03 0.02 0.02 0.02 0.02 0.01 0.01 0.01 0.01 0.01 0.01 0.01 0.02 0.03 0.01 0.01 0.01 0.01 0.01 0.02 0.02 0.02 0.02 0.02 0.02 0.02 0.04 0.06 0.06 0.07 0.08 0.10 0.10 0.11 0.14 0.15 0.16
0.05 0.04 0.03 0.02 0.02 0.02 0.02 0.02 0.02 0.02 0.01 0.01 0.01 0.03 0.03 0.03 0.03 0.01 0.01 0.02 0.03 0.02 0.02 0.02 0.02 0.02 0.02 0.02 0.03 0.03 0.04 0.05 0.04 0.06 0.07 0.09 0.11 0.13
0.05 0.05 0.04 0.04 0.04 0.05 0.05 0.04 0.04 0.03 0.02 0.01 0.01 0.02 0.03 0.03 0.04 0.02 0.02 0.02 0.02 0.02 0.02 0.02 0.02 0.02 0.02 0.02 0.02 0.02 0.03 0.03 0.03 0.03 0.05 0.07 0.10 0.11
0.06 0.07 0.06 0.07 0.04 0.04 0.04 0.03 0.02 0.02 0.02 0.01 0.01 0.01 0.01 0.02 0.02 0.03 0.03 0.03 0.02 0.03 0.02 0.02 0.02 0.02 0.02 0.02 0.02 0.03 0.03 0.03 0.02 0.02 0.03 0.03 0.04 0.05
0.07 0.06 0.05 0.05 0.04 0.04 0.04 0.03 0.03 0.02 0.02 0.01 0.01 0.01 0.01 0.01 0.01 0.01 0.02 0.02 0.03 0.03 0.03 0.03 0.03 0.03 0.03 0.03 0.03 0.02 0.02 0.02 0.01 0.01 0.01 0.01 0.02 0.02
0.07 0.06 0.05 0.04 0.03 0.03 0.04 0.04 0.04 0.04 0.03 0.02 0.02 0.02 0.02 0.02 0.02 0.01 0.01 0.02 0.02 0.03 0.03 0.03 0.04 0.03 0.03 0.03 0.03 0.03 0.03 0.03 0.02 0.02 0.01 0.01 0.01 0.01
0.09 0.07 0.06 0.05 0.04 0.04 0.04 0.04 0.05 0.05 0.04 0.03 0.03 0.02 0.02 0.02 0.02 0.03 0.03 0.04 0.05 0.05 0.05 0.04 0.04 0.03 0.03 0.04 0.04 0.04 0.05 0.05 0.05 0.04 0.03 0.03 0.03 0.02
0.06 0.06 0.06 0.06 0.04 0.03 0.03 0.04 0.04 0.03 0.03 0.03 0.03 0.02 0.02 0.03 0.03 0.04 0.05 0.05 0.06 0.05 0.04 0.04 0.03 0.03 0.03 0.03 0.05 0.06 0.06 0.07 0.07 0.05 0.04 0.04 0.05 0.05
0.06 0.05 0.05 0.04 0.03 0.02 0.02 0.03 0.03 0.03 0.03 0.04 0.04 0.04 0.03 0.03 0.04 0.03 0.03 0.02 0.02 0.02 0.02 0.03 0.03 0.03 0.04 0.04 0.06 0.07 0.07 0.06 0.05 0.05 0.04 0.04 0.05 0.05
0.04 0.04 0.03 0.03 0.03 0.02 0.02 0.02 0.02 0.02 0.03 0.04 0.03 0.04 0.04 0.04 0.03 0.03 0.03 0.02 0.02 0.02 0.02 0.03 0.04 0.04 0.04 0.04 0.05 0.05 0.05 0.05 0.05 0.05 0.04 0.04 0.04 0.03
0.03 0.04 0.03 0.02 0.03 0.04 0.03 0.04 0.05 0.04 0.04 0.04 0.03 0.03 0.03 0.03 0.03 0.03 0.03 0.03 0.03 0.03 0.03 0.04 0.05 0.05 0.06 0.05 0.05 0.06 0.07 0.07 0.07 0.06 0.05 0.04 0.04 0.04
0.02 0.03 0.04 0.03 0.03 0.03 0.03 0.03 0.04 0.04 0.04 0.04 0.04 0.04 0.03 0.03 0.02 0.02 0.02 0.02 0.02 0.03 0.03 0.03 0.02 0.03 0.05 0.05 0.05 0.05 0.06 0.07 0.07 0.06 0.05 0.04 0.04 0.03
0.03 0.03 0.03 0.03 0.02 0.03 0.03 0.03 0.05 0.05 0.04 0.03 0.03 0.02 0.02 0.01 0.01 0.01 0.01 0.01 0.01 0.02 0.02 0.02 0.02 0.02 0.02 0.03 0.03 0.03 0.03 0.04 0.04 0.04 0.04 0.04 0.04 0.02
0.03 0.03 0.03 0.03 0.03 0.02 0.02 0.02 0.02 0.02 0.01 0.01 0.01 0.01 0.01 0.01 0.01 0.01 0.01 0.01 0.01 0.01 0.01 0.01 0.01 0.01 0.02 0.02 0.02 0.03 0.03 0.03 0.03 0.03 0.03 0.04 0.04 0.03
0.02 0.02 0.02 0.02 0.03 0.03 0.03 0.02 0.01 0.01 0.01 0.01 0.01 0.01 0.01 0.02 0.02 0.02 0.02 0.01 0.01 0.01 0.01 0.02 0.02 0.02 0.02 0.02 0.02 0.02 0.02 0.02 0.02 0.02 0.02 0.03 0.02 0.02
0.02 0.02 0.01 0.01 0.01 0.01 0.02 0.02 0.02 0.01 0.01 0.00 0.00 0.01 0.01 0.01 0.02 0.02 0.02 0.02 0.01 0.01 0.01 0.01 0.01 0.02 0.02 0.02 0.02 0.02 0.02 0.02 0.02 0.02 0.02 0.01 0.01 0.02
0.03 0.02 0.02 0.01 0.01 0.01 0.01 0.01 0.01 0.01 0.01 0.01 0.00 0.00 0.00 0.01 0.01 0.02 0.03 0.03 0.02 0.02 0.01 0.01 0.01 0.01 0.01 0.02 0.02 0.01 0.01 0.01 0.01 0.01 0.02 0.02 0.02 0.01
0.04 0.03 0.02 0.02 0.02 0.01 0.01 0.01 0.02 0.01 0.01 0.01 0.01 0.01 0.01 0.01 0.01 0.01 0.02 0.03 0.04 0.03 0.02 0.01 0.01 0.01 0.01 0.01 0.01 0.01 0.01 0.01 0.01 0.01 0.01 0.01 0.02 0.02
0.04 0.03 0.03 0.02 0.02 0.01 0.01 0.01 0.01 0.01 0.01 0.01 0.01 0.01 0.01 0.01 0.01 0.02 0.02 0.03 0.03 0.04 0.04 0.04 0.04 0.03 0.02 0.01 0.00 0.00 0.01 0.01 0.01 0.00 0.01 0.01 0.02 0.02
0.03 0.02 0.02 0.02 0.02 0.02 0.02 0.01 0.01 0.02 0.02 0.02 0.02 0.01 0.01 0.01 0.01 0.02 0.02 0.02 0.03 0.03 0.03 0.03 0.04 0.04 0.03 0.02 0.02 0.01 0.01 0.01 0.01 0.01 0.01 0.01 0.02 0.02
0.04 0.03 0.03 0.02 0.02 0.02 0.02 0.02 0.02 0.02 0.02 0.02 0.02 0.01 0.01 0.01 0.01 0.02 0.02 0.02 0.02 0.02 0.02 0.02 0.02 0.03 0.03 0.03 0.02 0.02 0.01 0.02 0.01 0.01 0.01 0.02 0.02 0.02
0.05 0.04 0.03 0.02 0.03 0.03 0.02 0.02 0.02 0.01 0.01 0.01 0.01 0.01 0.01 0.02 0.02 0.02 0.02 0.02 0.02 0.01 0.01 0.01 0.02 0.02 0.02 0.02 0.02 0.01 0.01 0.02 0.02 0.02 0.01 0.01 0.01 0.01
0.06 0.05 0.04 0.04 0.03 0.03 0.02 0.02 0.02 0.02 0.02 0.02 0.01 0.01 0.01 0.01 0.01 0.02 0.02 0.02 0.02 0.01 0.01 0.01 0.01 0.02 0.02 0.02 0.01 0.01 0.01 0.01 0.02 0.02 0.02 0.01 0.01 0.01
MSLP
1013.58 1013.67 1013.89 1014.21 1014.58 1014.95 1015.27 1015.48 1015.58 1015.57 1015.45 1015.25 1015.02 1014.78 1014.57 1014.42 1014.33 1014.31 1014.37 1014.49 1014.67 1014.90 1015.15 1015.41 1015.67 1015.90 1016.11 1016.27 1016.38 1016.46 1016.50 1016.51 1016.49 1016.46 1016.42 1016.35 1016.26 1016.14
1012.86 1012.90 1013.10 1013.41 1013.80 1014.22 1014.61 1014.93 1015.15 1015.24 1015.24 1015.14 1014.97 1014.77 1014.57 1014.40 1014.26 1014.18 1014.16 1014.20 1014.31 1014.47 1014.67 1014.89 1015.13 1015.36 1015.57 1015.75 1015.89 1016.00 1016.07 1016.12 1016.15 1016.17 1016.16 1016.13 1016.08 1015.99
1012.38 1012.38 1012.53 1012.81 1013.18 1013.61 1014.03 1014.40 1014.70 1014.89 1014.97 1014.97 1014.88 1014.73 1014.56 1014.38 1014.21 1014.08 1013.99 1013.96 1013.98 1014.06 1014.19 1014.36 1014.56 1014.77 1014.97 1015.16 1015.32 1015.46 1015.58 1015.67 1015.74 1015.80 1015.84 1015.85 1015.84 1015.78
1012.18 1012.13 1012.22 1012.45 1012.77 1013.17 1013.57 1013.96 1014.29 1014.54 1014.70 1014.76 1014.75 1014.66 1014.53 1014.37 1014.19 1014.03 1013.89 1013.78 1013.73 1013.73 1013.78 1013.89 1014.03 1014.20 1014.38 1014.56 1014.74 1014.90 1015.04 1015.17 1015.29 1015.39 1015.47 1015.52 1015.54 1015.52
1012.19 1012.11 1012.15 1012.31 1012.57 1012.90 1013.26 1013.62 1013.95 1014.21 1014.41 1014.54 1014.59 1014.56 1014.48 1014.35 1014.19 1014.01 1013.84 1013.68 1013.56 1013.49 1013.46 1013.49 1013.57 1013.69 1013.84 1014.00 1014.18 1014.35 1014.52 1014.68 1014.83 1014.96 1015.08 1015.17 1015.22 1015.23
1012.35 1012.26 1012.26 1012.36 1012.54 1012.79 1013.08 1013.38 1013.66 1013.92 1014.13 1014.29 1014.38 1014.41 1014.38 1014.30 1014.17 1014.00 1013.81 1013.62 1013.45 1013.31 1013.22 1013.18 1013.19 1013.25 1013.35 1013.49 1013.65 1013.83 1014.01 1014.19 1014.37 1014.54 1014.68 1014.80 1014.88 1014.91
1012.56 1012.47 1012.45 1012.50 1012.61 1012.78 1012.98 1013.20 1013.42 1013.64 1013.84 1014.00 1014.12 1014.19 1014.21 1014.17 1014.08 1013.94 1013.76 1013.56 1013.35 1013.17 1013.02 1012.91 1012.86 1012.86 1012.92 1013.03 1013.17 1013.34 1013.53 1013.72 1013.92 1014.11 1014.28 1014.42 1014.52 1014.58
1012.73 1012.66 1012.63 1012.65 1012.70 1012.79 1012.91 1013.05 1013.20 1013.36 1013.52 1013.66 1013.79 1013.89 1013.94 1013.94 1013.89 1013.78 1013.62 1013.43 1013.21 1013.00 1012.81 1012.65 1012.55 1012.50 1012.52 1012.59 1012.71 1012.86 1013.05 1013.26 1013.47 1013.68 1013.87 1014.03 1014.15 1014.22
1012.81 1012.78 1012.76 1012.75 1012.77 1012.80 1012.85 1012.91 1012.98 1013.07 1013.17 1013.29 1013.40 1013.50 1013.58 1013.61 1013.60 1013.52 1013.39 1013.22 1013.00 1012.78 1012.57 1012.38 1012.23 1012.15 1012.12 1012.16 1012.26 1012.40 1012.58 1012.79 1013.01 1013.23 1013.44 1013.61 1013.75 1013.84
1012.80 1012.80 1012.80 1012.80 1012.79 1012.78 1012.77 1012.76 1012.76 1012.79 1012.83 1012.90 1012.99 1013.08 1013.16 1013.21 1013.22 1013.18 1013.08 1012.93 1012.73 1012.52 1012.29 1012.09 1011.92 1011.81 1011.75 1011.76 1011.83 1011.96 1012.13 1012.33 1012.55 1012.78 1012.99 1013.18 1013.33 1013.43
1012.74 1012.77 1012.79 1012.80 1012.78 1012.75 1012.70 1012.64 1012.59 1012.55 1012.54 1012.56 1012.61 1012.68 1012.75 1012.81 1012.83 1012.82 1012.75 1012.62 1012.45 1012.25 1012.03 1011.83 1011.65 1011.51 1011.43 1011.41 1011.46 1011.56 1011.71 1011.89 1012.10 1012.32 1012.53 1012.72 1012.88 1013.00
1012.69 1012.75 1012.79 1012.81 1012.79 1012.75 1012.67 1012.58 1012.49 1012.40 1012.34 1012.32 1012.33 1012.36 1012.42 1012.47 1012.51 1012.51 1012.47 1012.37 1012.22 1012.04 1011.84 1011.64 1011.46 1011.31 1011.21 1011.16 1011.18 1011.24 1011.36 1011.51 1011.69 1011.88 1012.08 1012.26 1012.42 1012.55
1012.73 1012.79 1012.84 1012.86 1012.86 1012.81 1012.73 1012.62 1012.50 1012.38 1012.28 1012.22 1012.19 1012.20 1012.24 1012.28 1012.32 1012.33 1012.31 1012.23 1012.12 1011.96 1011.78 1011.59 1011.40 1011.24 1011.12 1011.04 1011.02 1011.04 1011.10 1011.20 1011.34 1011.49 1011.65 1011.81 1011.97 1012.10
1012.86 1012.92 1012.97 1013.00 1013.00 1012.96 1012.87 1012.76 1012.62 1012.49 1012.37 1012.28 1012.22 1012.21 1012.23 1012.27 1012.30 1012.32 1012.31 1012.26 1012.16 1012.03 1011.86 1011.68 1011.49 1011.32 1011.18 1011.07 1010.99 1010.96 1010.96 1011.00 1011.07 1011.16 1011.27 1011.40 1011.53 1011.65
1013.09 1013.14 1013.19 1013.22 1013.22 1013.18 1013.10 1012.99 1012.85 1012.71 1012.58 1012.48 1012.41 1012.38 1012.39 1012.41 1012.45 1012.47 1012.47 1012.43 1012.35 1012.23 1012.08 1011.91 1011.72 1011.54 1011.37 1011.22 1011.10 1011.00 1010.94 1010.91 1010.90 1010.92 1010.97 1011.04 1011.13 1011.23
1013.37 1013.41 1013.45 1013.48 1013.48 1013.45 1013.38 1013.27 1013.15 1013.01 1012.88 1012.78 1012.70 1012.67 1012.66 1012.68 1012.71 1012.73 1012.74 1012.71 1012.64 1012.53 1012.38 1012.21 1012.03 1011.83 1011.64 1011.46 1011.29 1011.14 1011.02 1010.91 1010.83 1010.78 1010.75 1010.76 1010.80 1010.87
1013.64 1013.66 1013.70 1013.73 1013.74 1013.71 1013.65 1013.55 1013.44 1013.31 1013.20 1013.10 1013.03 1012.99 1012.99 1013.00 1013.03 1013.04 1013.04 1013.01 1012.95 1012.84 1012.70 1012.53 1012.34 1012.14 1011.93 1011.72 1011.52 1011.33 1011.16 1010.99 1010.85 1010.73 1010.63 1010.58 1010.57 1010.60
1013.83 1013.86 1013.90 1013.93 1013.94 1013.92 1013.87 1013.79 1013.69 1013.58 1013.47 1013.39 1013.33 1013.29 1013.29 1013.30 1013.31 1013.32 1013.31 1013.28 1013.20 1013.09 1012.95 1012.78 1012.59 1012.39 1012.17 1011.96 1011.74 1011.53 1011.33 1011.13 1010.94 1010.77 1010.63 1010.53 1010.47 1010.46
1013.94 1013.98 1014.03 1014.06 1014.07 1014.06 1014.01 1013.94 1013.85 1013.76 1013.67 1013.60 1013.55 1013.53 1013.52 1013.52 1013.53 1013.52 1013.50 1013.44 1013.36 1013.24 1013.09 1012.92 1012.73 1012.53 1012.33 1012.12 1011.91 1011.71 1011.50 1011.29 1011.09 1010.90 1010.74 1010.60 1010.51 1010.47
1013.96 1014.01 1014.07 1014.10 1014.12 1014.11 1014.07 1014.01 1013.94 1013.86 1013.79 1013.73 1013.69 1013.67 1013.66 1013.66 1013.65 1013.62 1013.58 1013.50 1013.39 1013.26 1013.10 1012.93 1012.75 1012.56 1012.37 1012.19 1012.01 1011.82 1011.64 1011.46 1011.27 1011.10 1010.94 1010.80 1010.71 1010.65
1013.91 1013.98 1014.04 1014.08 1014.09 1014.08 1014.05 1014.00 1013.94 1013.88 1013.83 1013.79 1013.76 1013.74 1013.73 1013.72 1013.69 1013.64 1013.57 1013.47 1013.34 1013.18 1013.01 1012.83 1012.66 1012.48 1012.32 1012.17 1012.03 1011.89 1011.75 1011.61 1011.47 1011.33 1011.20 1011.09 1011.01 1010.97
1013.82 1013.90 1013.96 1013.99 1014.00 1013.99 1013.96 1013.92 1013.88 1013.84 1013.80 1013.78 1013.77 1013.76 1013.75 1013.73 1013.68 1013.61 1013.51 1013.38 1013.22 1013.05 1012.86 1012.67 1012.50 1012.34 1012.20 1012.08 1011.98 1011.89 1011.81 1011.72 1011.64 1011.56 1011.49 1011.42 1011.38 1011.37
1013.70 1013.77 1013.82 1013.84 1013.85 1013.84 1013.81 1013.78 1013.76 1013.74 1013.73 1013.73 1013.73 1013.74 1013.73 1013.71 1013.65 1013.56 1013.44 1013.28 1013.10 1012.90 1012.69 1012.49 1012.31 1012.16 1012.03 1011.94 1011.88 1011.83 1011.80 1011.78 1011.75 1011.74 1011.72 1011.71 1011.72 1011.76
Thickness
5725 5724 5722 5720 5719 5717 5715 5713 5708 5703 5703 5705 5706 5707 5706 5705 5705 5704 5703 5703 5702 5701 5700 5699 5697 5696 5694 5693 5691 5690 5688 5687 5686 5684 5683 5682 5682 5681
5723 5722 5720 5719 5717 5716 5714 5711 5709 5706 5702 5703 5702 5702 5702 5701 5700 5699 5699 5698 5697 5695 5694 5693 5692 5691 5689 5687 5685 5683 5682 5681 5680 5679 5677 5676 5675 5674
5721 5720 5718 5717 5715 5713 5711 5709 5707 5705 5701 5700 5699 5698 5697 5696 5695 5694 5693 5692 5691 5690 5689 5687 5686 5685 5682 5681 5679 5676 5675 5674 5673 5672 5671 5669 5668 5668
5720 5718 5716 5714 5712 5710 5708 5705 5703 5702 5699 5696 5695 5693 5692 5691 5690 5688 5687 5686 5685 5683 5682 5681 5680 5678 5676 5674 5672 5670 5668 5666 5665 5664 5663 5662 5660 5659
5718 5716 5713 5711 5708 5706 5704 5702 5700 5698 5696 5693 5691 5689 5687 5686 5684 5683 5681 5679 5678 5677 5675 5674 5672 5671 5669 5667 5665 5663 5661 5659 5658 5656 5655 5653 5652 5651
5716 5714 5711 5708 5706 5704 5702 5699 5697 5694 5691 5689 5687 5684 5682 5680 5678 5676 5675 5673 5672 5670 5668 5667 5665 5663 5661 5660 5658 5656 5654 5652 5651 5649 5647 5646 5644 5643
5712 5710 5708 5706 5704 5702 5699 5696 5693 5690 5687 5684 5682 5680 5677 5674 5673 5671 5669 5667 5665 5663 5661 5659 5658 5656 5654 5652 5650 5649 5647 5645 5643 5641 5640 5638 5636 5635
5706 5705 5704 5702 5700 5698 5696 5693 5691 5687 5684 5681 5678 5676 5674 5672 5669 5666 5663 5660 5659 5658 5654 5653 5651 5649 5647 5645 5643 5642 5640 5638 5636 5634 5632 5630 5628 5626
5701 5699 5699 5697 5694 5693 5691 5688 5686 5684 5682 5679 5675 5673 5671 5669 5665 5662 5659 5657 5655 5653 5649 5648 5646 5643 5641 5639 5636 5635 5632 5630 5628 5626 5624 5622 5620 5618
5696 5694 5692 5691 5690 5688 5685 5683 5680 5679 5677 5675 5672 5670 5667 5664 5661 5658 5655 5650 5648 5645 5643 5642 5640 5637 5635 5632 5630 5628 5625 5623 5621 5619 5617 5615 5612 5610
5692 5690 5688 5686 5684 5682 5679 5677 5674 5672 5670 5668 5666 5664 5661 5658 5655 5651 5647 5645 5642 5640 5636 5635 5633 5630 5627 5625 5623 5620 5618 5616 5613 5611 5610 5607 5605 5602
5686 5684 5682 5681 5679 5676 5674 5671 5668 5666 5664 5662 5659 5656 5654 5651 5648 5645 5643 5639 5636 5634 5631 5627 5625 5622 5621 5619 5615 5613 5610 5608 5605 5603 5601 5599 5596 5593
5680 5677 5676 5674 5672 5669 5667 5665 5662 5659 5656 5654 5651 5649 5646 5643 5641 5638 5635 5633 5631 5628 5625 5620 5618 5614 5612 5611 5608 5605 5602 5600 5597 5595 5592 5590 5587 5584
5673 5670 5668 5667 5664 5662 5659 5657 5654 5650 5648 5646 5643 5640 5638 5636 5633 5630 5628 5626 5624 5622 5618 5614 5611 5608 5605 5603 5601 5598 5594 5592 5589 5587 5584 5581 5578 5576
5665 5662 5660 5658 5655 5653 5651 5648 5645 5642 5640 5637 5635 5633 5630 5628 5625 5622 5620 5617 5616 5613 5611 5608 5605 5601 5598 5596 5594 5590 5587 5584 5581 5578 5576 5573 5571 5568
5653 5651 5649 5647 5646 5643 5641 5639 5636 5634 5632 5630 5628 5625 5622 5619 5617 5614 5612 5609 5607 5605 5601 5599 5596 5593 5590 5587 5585 5582 5579 5576 5573 5570 5567 5565 5563 5561
5643 5641 5640 5638 5636 5634 5631 5630 5628 5625 5622 5621 5618 5616 5613 5610 5608 5605 5603 5600 5598 5596 5593 5589 5586 5583 5581 5579 5577 5575 5572 5569 5565 5562 5559 5558 5557 5555
5633 5632 5630 5630 5628 5625 5623 5621 5618 5616 5613 5612 5609 5607 5604 5601 5599 5596 5594 5591 5589 5587 5584 5581 5578 5575 5572 5571 5568 5567 5564 5561 5558 5554 5552 5551 5551 5549
5624 5623 5621 5620 5618 5616 5613 5612 5609 5607 5604 5602 5600 5598 5595 5592 5589 5587 5584 5582 5579 5577 5575 5572 5569 5567 5566 5566 5564 5558 5556 5554 5551 5548 5545 5544 5545 5545
5615 5613 5612 5610 5608 5606 5604 5602 5600 5597 5594 5592 5590 5588 5585 5583 5581 5578 5575 5573 5570 5568 5565 5563 5561 5559 5557 5556 5554 5551 5548 5546 5544 5542 5541 5538 5537 5537
5605 5603 5601 5600 5598 5596 5594 5592 5590 5588 5585 5583 5580 5578 5575 5573 5572 5570 5567 5563 5560 5558 5557 5556 5553 5549 5547 5545 5544 5544 5541 5538 5537 5535 5534 5532 5531 5531
5596 5593 5591 5589 5587 5585 5584 5582 5581 5579 5576 5574 5572 5569 5567 5564 5563 5561 5558 5555 5552 5550 5548 5546 5543 5540 5538 5537 5537 5536 5534 5531 5529 5528 5526 5525 5525 5526
5586 5584 5582 5580 5578 5576 5575 5574 5572 5571 5568 5566 5563 5561 5558 5556 5554 5552 5549 5546 5543 5541 5538 5536 5534 5532 5530 5528 5527 5526 5525 5524 5523 5521 5521 5520 5519 5518